Location: Bo?a Wola
(50.4192°N, 19.7966°E)
Time: 14:10:37
(UTC+00:00)

Cosmos 1934 Rocket - Pass Details

Date: 14 September 2024
Orbit: 938 x 997 km, 83.0° (Epoch: 08 October)

Event Time Altitude Azimuth Distance (km) Brightness Sun altitude
Rises 01:59:45 0° 350° (N) 3,692 7.3 -21.0°
Reaches altitude 10° 02:02:16 10° 351° (N) 2,748 6.6 -20.6°
Maximum altitude 02:08:36 87° 80° (E) 1,000 4.0 -19.8°
Drops below altitude 10° 02:14:58 10° 171° (S) 2,757 6.2 -18.9°
Sets 02:17:29 0° 172° (S) 3,704 6.8 -18.6°
